Weather History for Friday Harbor, WA

Change the Weather History Date:

Saturday, September 8, 2012

  Actual Average Record
Temperature  
Mean Temperature 60 °F -  
Max Temperature 77 °F 66 °F 82 °F (2011)
Min Temperature 48 °F 46 °F 44 °F (2001)
Degree Days  
Heating Degree Days 4    
Growing Degree Days 10 (Base 50)    
Moisture  
Dew Point 50 °F    
Average Humidity 69    
Maximum Humidity 87    
Minimum Humidity 44    
Precipitation  
Precipitation 0.00 in - - ()
Sea Level Pressure  
Sea Level Pressure 29.97 in    
Wind  
Wind Speed 2 mph (South)    
Max Wind Speed 14 mph    
Max Gust Speed 25 mph    
Visibility 10 miles    
Events      
Averages and records for this station are not official NWS values.
T = Trace of Precipitation, MM = Missing Value Source: NWS Daily Summary

Daily Weather History Graph

Daily Weather History Graph

Search for Another Location

Airport:

Trip Planner

Search our weather history database for the weather conditions in past years. The results will help you decide how hot, cold, wet, or windy it might be!

Date:

Astronomy

Sep. 08, 2012 Rise Set
Actual Time 6:39 AM PDT 7:38 PM PDT
Civil Twilight 6:07 AM PDT 8:09 PM PDT
Nautical Twilight 5:29 AM PDT 8:48 PM PDT
Astronomical Twilight 4:48 AM PDT 9:28 PM PDT
Moon 11:53 PM PDT (9/8) 3:01 PM PDT (9/8)
Length of Visible Light 14h 02m
Length of Day
12h 58m
Waning Gibbous, 48% of the Moon is Illuminated
Sep 8
Waning Gibbous
Sep 15
New
Sep 22
First Quarter
Sep 29
Full
Oct 8
Last Quarter

Hourly Weather History & Observations

Time (PDT) Temp. Dew Point Humidity Pressure Visibility Wind Dir Wind Speed Gust Speed Precip Events Conditions
12:53 AM 61.0 °F 46.9 °F 60% 30.05 in 10.0 mi Calm Calm - N/A   Clear
1:53 AM 53.1 °F 46.9 °F 80% 30.04 in 10.0 mi Calm Calm - N/A   Clear
2:53 AM 52.0 °F 46.0 °F 80% 30.04 in 10.0 mi Calm Calm - N/A   Clear
3:53 AM 50.0 °F 46.0 °F 86% 30.03 in 10.0 mi Calm Calm - N/A   Clear
4:53 AM 51.1 °F 45.0 °F 80% 30.02 in 10.0 mi Calm Calm - N/A   Clear
5:53 AM 48.9 °F 45.0 °F 86% 30.02 in 10.0 mi Calm Calm - N/A   Clear
6:53 AM 50.0 °F 46.0 °F 86% 30.02 in 10.0 mi Calm Calm - N/A   Clear
7:53 AM 57.9 °F 50.0 °F 75% 30.03 in 10.0 mi Calm Calm - N/A   Clear
8:53 AM 63.0 °F 52.0 °F 67% 30.02 in 10.0 mi Calm Calm - N/A   Clear
9:53 AM 70.0 °F 52.0 °F 53% 30.01 in 10.0 mi NNE 5.8 mph - N/A   Clear
10:53 AM 70.0 °F 52.0 °F 53% 29.99 in 9.0 mi SE 3.5 mph - N/A   Clear
11:53 AM 70.0 °F 52.0 °F 53% 29.98 in 10.0 mi ESE 3.5 mph - N/A   Clear
12:53 PM 72.0 °F 52.0 °F 49% 29.96 in 10.0 mi ESE 3.5 mph - N/A   Clear
1:53 PM 73.0 °F 52.0 °F 48% 29.94 in 10.0 mi ESE 4.6 mph - N/A   Clear
2:53 PM 70.0 °F 50.0 °F 49% 29.93 in 10.0 mi SW 9.2 mph - N/A   Clear
3:53 PM 72.0 °F 48.9 °F 44% 29.91 in 10.0 mi SW 9.2 mph - N/A   Clear
4:53 PM 66.9 °F 51.1 °F 57% 29.91 in 10.0 mi SSW 4.6 mph - N/A   Clear
5:53 PM 63.0 °F 54.0 °F 72% 29.90 in 10.0 mi Calm Calm - N/A   Clear
6:53 PM 62.1 °F 53.1 °F 72% 29.89 in 10.0 mi SW 13.8 mph 23.0 mph N/A   Clear
7:53 PM 60.1 °F 53.1 °F 78% 29.89 in 10.0 mi SW 13.8 mph 25.3 mph N/A   Clear
8:53 PM 59.0 °F 53.1 °F 81% 29.89 in 10.0 mi SSW 11.5 mph 19.6 mph N/A   Clear
9:53 PM 57.9 °F 53.1 °F 84% 29.89 in 10.0 mi SSW 4.6 mph - N/A   Clear
10:53 PM 57.0 °F 53.1 °F 87% 29.90 in 10.0 mi Calm Calm - N/A   Unknown
11:53 PM 57.0 °F 52.0 °F 83% 29.92 in 10.0 mi Calm Calm - N/A   Clear